Regional Weather Roundup
Issued by NWS Newport/Morehead, NC

Current Version | Previous Version | Text Only | Print | Product List | Glossary On
Versions: 1 2 3 4 5 6 7 8 9 10 11 12 13 14 15 16 17 18 19 20 21 22 23 24 25 26 27 28 29 30 31 32 33 34 35 36 37 38 39 40 41 42 43 44 45 46 47 48 49 50
000
ASUS42 KMHX 271425
RWRMHX
WEATHER ROUNDUP FOR EASTERN NORTH CAROLINA
NATIONAL WEATHER SERVICE NEWPORT/MOREHEAD CITY NC
1000 AM EDT TUE SEP 27 2016

NOTE: "FAIR" INDICATES FEW OR NO CLOUDS BELOW 12,000 FEET
WITH NO SIGNIFICANT WEATHER AND/OR OBSTRUCTIONS TO VISIBILITY

NCZ015>017-031-032-045>047-102-103-271500-
NORTH COAST

CITY           SKY/WX    TMP DP  RH WIND       PRES   REMARKS
EDENTON        CLOUDY    77  68  72 W3        30.00S
ELIZABETH CITY CLOUDY    76  69  79 CALM      29.99R
KITTY HAWK     CLOUDY    79  73  81 SW3       29.98S
MANTEO         CLOUDY    77  71  80 SW3       29.99S

$$

NCZ045>047-081-094-103-104-271500-
CENTRAL COAST

CITY           SKY/WX    TMP DP  RH WIND       PRES   REMARKS
FRISCO         LGT RAIN  76  71  85 S12       29.99R

$$

NCZ095-097-098-100-101-271500-
SOUTHERN COAST

CITY           SKY/WX    TMP DP  RH WIND       PRES   REMARKS
BEAUFORT       CLOUDY    78  73  84 CALM      29.97R
CEDAR ISLAND   NOT AVBL
JACKSONVILLE   CLOUDY    77  67  71 NE3       29.96S
PINEY ISLAND   LGT RAIN N/A N/A N/A CALM      29.97S
WILMINGTON     CLOUDY    76  70  82 CALM      29.96R


$$

NCZ011>013-027>030-043-044-078>080-089-090>093-098-271500-
COASTAL PLAIN

CITY           SKY/WX    TMP DP  RH WIND       PRES   REMARKS
AHOSKIE        CLOUDY    71  68  91 CALM      29.99S
CLINTON        SUNNY     78  71  79 CALM      29.99R
ELIZABETHTOWN  CLOUDY    75  71  88 CALM      29.99R
GOLDSBORO      CLOUDY    74  73  96 N2        29.98R
GREENVILLE     CLOUDY    73  70  88 CALM      30.01S
HAVELOCK       CLOUDY    78  70  76 E3        29.98S
KENANSVILLE    CLOUDY    73  70  88 CALM      29.99R
KINSTON        CLOUDY    73  70  88 N5        30.00R
NEW BERN       CLOUDY    79  69  71 SE6       29.99R
RICHLANDS      NOT AVBL
ROCKY MOUNT    CLOUDY    73  68  84 CALM      29.99R
WASHINGTON     CLOUDY    74  69  84 CALM      30.00R
WHITEVILLE     NOT AVBL

$$

AMZ130-135-150-152-154-156-158-170-250-252-270-ANZ085-086-088-633-658-670-271500-
MARINE OBSERVATIONS

STATION/POSITION TIME  TEMP    WIND        PRES    WAVE   SWELL
                       AIR SEA DIR/SP/G            HT/PER HT/PER
                 (UTC) (F)     (DEG/KT/KT) (MB)    (FT/S) (FT/S)
CHESAPEAKE LIGHT NOT AVBL
64 E VA BEACH    1350   75 73  190/  8/ 10 1015.5    3/ 5   3/ 5
DUCK             1400   77 76  200/  6/  8 1015.0
2 E DUCK         1341      76                N/A     3/13   2/13
OREGON INLET     1400   76 76  180/  3/  4 1015.4
13E OREGON INLT  1400      76                N/A     3/13   3/13
HATTERAS CG      1400   76 78  140/  8/ 13 1014.9
DIAMOND BUOY     1350   79 84  180/ 10/ 14 1015.2    3/ 8   3/ 8
CAPE LOOKOUT     1400   77     140/ 13/ 15 1014.3
BEAUFORT LAB     1400   77 76  130/  8/ 11 1014.1
30 SE NEW RVR IN 1408   78 82  130/ 12/ 16 1014.4
30 SE NEW RVR IN 1355      82                N/A     4/ 5
27 SE WRIGHTSVLE 1408   79 81  110/  6/ 10 1014.3
5 SE WRIGHTSVLE  1408   80 80   20/  2/  6 1015.7
225 S CAPE HAT   1350   79 83  140/ 14/ 19 1013.9    6/ 6   3/ 8
41 SE CHARLESTON 1350   76 82   80/  4/  4 1013.9    3/ 8   3/ 8

$$




USA.gov is the U.S. government's official web portal to all federal, state and local government web resources and services.